Tracking 21076 objects as of 9-Aug-2020
HD Live streaming from Space Station
objects crossing your sky now
Track the most recent launched group of Starlink satellites

NINGXIA-1 5

Track NINGXIA-1 5 now!
10-day predictions


NORAD ID: 44783
Int'l Code: 2019-076E
Perigee: 887.2 km
Apogee: 903.1 km
Inclination: 45.0 °
Period: 102.7 minutes
Semi major axis: 7266 km
RCS: Unknown
Launch date: November 13, 2019
Source: People's Republic of China (PRC)
Launch site: Taiyaun Space Center, China (TSC)
aabbcc
Your satellite tracking list
Your tracking list is empty




NASA's NSSDC Master Catalog

Two Line Element Set (TLE):
1 44783U 19076E   20222.10888893 -.00000130  00000-0  00000+0 0  9996
2 44783  45.0087  10.2207 0010926 108.8020 251.3999 14.01676000 37868
Source of the keplerian elements: AFSPC